timestamp,surface_pressure_avg,surface_temp_avg,battery_voltage,lat,long
2018-10-04 00:00:00+00:00,219.4548,12.0,13.05,47.84626,-54.09684
2018-10-04 00:10:00+00:00,216.8431,12.0,12.97,47.84626,-54.09684
2018-10-04 00:20:00+00:00,212.3864,12.0,13.05,47.84626,-54.09684
2018-10-04 00:30:00+00:00,212.4514,12.0,13.05,47.84626,-54.09684
2018-10-04 00:40:00+00:00,211.2931,12.0,13.05,47.84626,-54.09684
2018-10-04 00:50:00+00:00,205.5965,12.0,13.05,47.84626,-54.09684
2018-10-04 01:00:00+00:00,202.4031,11.99,13.05,47.84626,-54.09684
2018-10-04 01:10:00+00:00,203.0965,11.98,12.97,47.84626,-54.09684
2018-10-04 01:20:00+00:00,203.5614,11.95,13.05,47.84626,-54.09684
2018-10-04 01:30:00+00:00,202.8964,11.9,13.05,47.84626,-54.09684
2018-10-04 01:40:00+00:00,203.9331,11.9,13.05,47.84626,-54.09684
2018-10-04 01:50:00+00:00,204.9098,11.9,13.05,47.84626,-54.09684
2018-10-04 02:00:00+00:00,206.4064,11.9,13.05,47.84626,-54.09684
2018-10-04 02:10:00+00:00,205.2764,11.9,12.97,47.84626,-54.09684
2018-10-04 02:20:00+00:00,205.0048,11.89,13.05,47.84626,-54.09684
2018-10-04 02:30:00+00:00,209.0764,11.89,13.05,47.84626,-54.09684
2018-10-04 02:40:00+00:00,212.8681,11.89,13.05,47.84626,-54.09684
2018-10-04 02:50:00+00:00,216.1881,11.89,13.05,47.84626,-54.09684
2018-10-04 03:00:00+00:00,221.6764,11.88,12.97,47.84626,-54.09684
2018-10-04 03:10:00+00:00,227.9431,11.89,12.89,47.84626,-54.09684
2018-10-04 03:20:00+00:00,230.6581,11.89,12.97,47.84626,-54.09684
2018-10-04 03:30:00+00:00,235.2097,11.9,12.97,47.84626,-54.09684
2018-10-04 03:40:00+00:00,241.8648,11.9,13.05,47.84626,-54.09684
2018-10-04 03:50:00+00:00,248.2814,11.9,13.05,47.84626,-54.09684
2018-10-04 04:00:00+00:00,253.7448,11.9,12.97,47.84626,-54.09684
2018-10-04 04:10:00+00:00,260.0364,11.9,12.89,47.84626,-54.09684
2018-10-04 04:20:00+00:00,264.5981,11.9,12.97,47.84626,-54.09684
2018-10-04 04:30:00+00:00,266.7581,11.87,12.97,47.84626,-54.09684
2018-10-04 04:40:00+00:00,271.7164,11.86,12.97,47.84626,-54.09684
2018-10-04 04:50:00+00:00,277.9631,11.8,12.97,47.84626,-54.09684
2018-10-04 05:00:00+00:00,282.0547,11.8,12.97,47.84626,-54.09684
2018-10-04 05:10:00+00:00,282.5197,11.8,12.89,47.84626,-54.09684
2018-10-04 05:20:00+00:00,285.7263,11.8,12.97,47.84626,-54.09684
2018-10-04 05:30:00+00:00,288.6296,11.82,12.97,47.84626,-54.09684
2018-10-04 05:40:00+00:00,291.4931,11.84,12.97,47.84626,-54.09684
2018-10-04 05:50:00+00:00,294.8896,11.85,12.97,47.84626,-54.09684
2018-10-04 06:00:00+00:00,298.2513,11.85,12.89,47.84626,-54.09684
2018-10-04 06:10:00+00:00,301.9263,11.87,12.81,47.84626,-54.09684
2018-10-04 06:20:00+00:00,304.293,11.89,12.97,47.84626,-54.09684
2018-10-04 06:30:00+00:00,303.8763,11.9,12.97,47.84626,-54.09684
2018-10-04 06:40:00+00:00,303.9247,11.89,12.97,47.84626,-54.09684
2018-10-04 06:50:00+00:00,308.3229,11.88,12.97,47.84626,-54.09684
2018-10-04 07:00:00+00:00,313.0712,11.87,12.89,47.84626,-54.09684
2018-10-04 07:10:00+00:00,309.7864,11.85,12.81,47.84626,-54.09684
2018-10-04 07:20:00+00:00,305.8096,11.83,12.89,47.84626,-54.09684
2018-10-04 07:30:00+00:00,308.2631,11.83,12.97,47.84626,-54.09684
2018-10-04 07:40:00+00:00,309.9664,11.8,12.97,47.84626,-54.09684
2018-10-04 07:50:00+00:00,303.5264,11.8,12.97,47.84626,-54.09684
2018-10-04 08:00:00+00:00,297.1281,11.8,12.89,47.84626,-54.09684
2018-10-04 08:10:00+00:00,298.5163,11.78,12.81,47.84626,-54.09684
2018-10-04 08:20:00+00:00,296.4197,11.7,12.89,47.84626,-54.09684
2018-10-04 08:30:00+00:00,286.4364,11.7,12.97,47.84626,-54.09684
2018-10-04 08:40:00+00:00,279.4614,11.7,12.97,47.84626,-54.09684
2018-10-04 08:50:00+00:00,278.1248,11.7,12.97,47.84626,-54.09684
2018-10-04 09:00:00+00:00,271.5114,11.7,12.89,47.84626,-54.09684
2018-10-04 09:10:00+00:00,263.0764,11.7,12.81,47.84626,-54.09684
2018-10-04 09:20:00+00:00,258.5247,11.7,12.89,47.84626,-54.09684
2018-10-04 09:30:00+00:00,253.4898,11.7,12.97,47.84626,-54.09684
2018-10-04 09:40:00+00:00,246.7748,11.7,12.97,47.84626,-54.09684
2018-10-04 09:50:00+00:00,244.1981,11.7,12.97,47.84626,-54.09684
2018-10-04 10:00:00+00:00,241.0814,11.7,12.89,47.84626,-54.09684
2018-10-04 10:10:00+00:00,234.4265,11.7,12.81,47.84626,-54.09684
2018-10-04 10:20:00+00:00,232.3981,11.7,12.89,47.84626,-54.09684
2018-10-04 10:30:00+00:00,234.8498,11.7,12.97,47.84626,-54.09684
2018-10-04 10:40:00+00:00,229.0597,11.7,12.97,47.84626,-54.09684
2018-10-04 10:50:00+00:00,221.0948,11.7,12.97,47.84626,-54.09684
2018-10-04 11:00:00+00:00,220.7597,11.7,12.97,47.84626,-54.09684
2018-10-04 11:10:00+00:00,218.2981,11.7,12.89,47.84626,-54.09684
2018-10-04 11:20:00+00:00,208.5298,11.7,12.97,47.84626,-54.09684
2018-10-04 11:30:00+00:00,205.6264,11.7,13.05,47.84626,-54.09684
2018-10-04 11:40:00+00:00,211.2031,11.69,13.13,47.84626,-54.09684
2018-10-04 11:50:00+00:00,209.2331,11.7,13.29,47.84626,-54.09684
2018-10-04 12:00:00+00:00,203.8548,11.7,13.6,47.84626,-54.09684
2018-10-04 12:10:00+00:00,207.7681,11.69,13.53,47.84626,-54.09684
2018-10-04 12:20:00+00:00,211.8348,11.69,13.68,47.84626,-54.09684
2018-10-04 12:30:00+00:00,208.9682,11.7,13.84,47.84626,-54.09684
2018-10-04 12:40:00+00:00,209.7331,11.7,14.4,47.84626,-54.09684
2018-10-04 12:50:00+00:00,212.5048,11.7,14.08,47.84626,-54.09684
2018-10-04 13:00:00+00:00,210.8082,11.7,14.0,47.84626,-54.09684
2018-10-04 13:10:00+00:00,209.3248,11.7,13.92,47.84626,-54.09684
2018-10-04 13:20:00+00:00,212.8064,11.7,14.08,47.84626,-54.09684
2018-10-04 13:30:00+00:00,215.1598,11.7,14.24,47.84626,-54.09684
2018-10-04 13:40:00+00:00,212.6714,11.7,14.24,47.84626,-54.09684
2018-10-04 13:50:00+00:00,213.9931,11.7,14.32,47.84626,-54.09684
2018-10-04 14:00:00+00:00,220.8881,11.7,14.24,47.84626,-54.09684
2018-10-04 14:10:00+00:00,222.0581,11.7,14.24,47.84626,-54.09684
2018-10-04 14:20:00+00:00,219.4281,11.7,14.48,47.84626,-54.09684
2018-10-04 14:30:00+00:00,221.8031,11.7,14.56,47.84626,-54.09684
2018-10-04 14:40:00+00:00,226.0331,11.7,14.48,47.84626,-54.09684
2018-10-04 14:50:00+00:00,225.5614,11.71,14.4,47.84626,-54.09684
2018-10-04 15:00:00+00:00,226.4081,11.7,14.32,47.84626,-54.09684
2018-10-04 15:10:00+00:00,231.2298,11.7,14.24,47.84626,-54.09684
2018-10-04 15:20:00+00:00,234.9764,11.7,14.4,47.84626,-54.09684
2018-10-04 15:30:00+00:00,237.1397,11.7,14.56,47.84626,-54.09684
2018-10-04 15:40:00+00:00,241.0414,11.7,14.48,47.84626,-54.09684
2018-10-04 15:50:00+00:00,247.3115,11.71,14.48,47.84626,-54.09684
2018-10-04 16:00:00+00:00,254.7564,11.7,14.32,47.84626,-54.09684
2018-10-04 16:10:00+00:00,261.7947,11.7,14.32,47.84626,-54.09684
2018-10-04 16:20:00+00:00,267.4198,11.7,14.48,47.84626,-54.09684
2018-10-04 16:30:00+00:00,272.3831,11.7,14.48,47.84626,-54.09684
2018-10-04 16:40:00+00:00,283.6664,11.7,14.48,47.84626,-54.09684
2018-10-04 16:50:00+00:00,290.9981,11.7,14.48,47.84626,-54.09684
2018-10-04 17:00:00+00:00,292.6197,11.7,14.56,47.84626,-54.09684
2018-10-04 17:10:00+00:00,293.553,11.7,14.72,47.84626,-54.09684
2018-10-04 17:20:00+00:00,303.6247,11.7,14.72,47.84626,-54.09684
2018-10-04 17:30:00+00:00,308.493,11.7,14.64,47.84626,-54.09684
2018-10-04 17:40:00+00:00,307.3347,11.7,14.64,47.84626,-54.09684
2018-10-04 17:50:00+00:00,310.9464,11.7,14.56,47.84626,-54.09684
2018-10-04 18:00:00+00:00,319.8696,11.7,14.48,47.84626,-54.09684
2018-10-04 18:10:00+00:00,321.7197,11.7,14.4,47.84626,-54.09684
2018-10-04 18:20:00+00:00,322.1246,11.7,14.48,47.84626,-54.09684
2018-10-04 18:30:00+00:00,326.9246,11.7,14.48,47.84626,-54.09684
2018-10-04 18:40:00+00:00,334.6528,11.7,14.4,47.84626,-54.09684
2018-10-04 18:50:00+00:00,330.9446,11.7,14.32,47.84626,-54.09684
2018-10-04 19:00:00+00:00,329.3213,11.7,14.24,47.84626,-54.09684
2018-10-04 19:10:00+00:00,335.7479,11.7,14.08,47.84626,-54.09684
2018-10-04 19:20:00+00:00,339.3396,11.7,14.08,47.84626,-54.09684
2018-10-04 19:30:00+00:00,334.308,11.7,14.08,47.84626,-54.09684
2018-10-04 19:40:00+00:00,334.9997,11.7,14.08,47.84626,-54.09684
2018-10-04 19:50:00+00:00,335.7146,11.7,14.0,47.84626,-54.09684
2018-10-04 20:00:00+00:00,337.3396,11.7,13.92,47.84626,-54.09684
2018-10-04 20:10:00+00:00,338.3446,11.7,13.76,47.84626,-54.09684
2018-10-04 20:20:00+00:00,341.0046,11.7,13.76,47.84626,-54.09684
2018-10-04 20:30:00+00:00,335.7429,11.73,13.76,47.84626,-54.09684
2018-10-04 20:40:00+00:00,332.2613,11.74,13.68,47.84626,-54.09684
2018-10-04 20:50:00+00:00,330.693,11.74,13.68,47.84626,-54.09684
2018-10-04 21:00:00+00:00,324.003,11.77,13.53,47.84626,-54.09684
2018-10-04 21:10:00+00:00,317.3846,11.75,13.37,47.84626,-54.09684
2018-10-04 21:20:00+00:00,313.1497,11.74,13.37,47.84626,-54.09684
2018-10-04 21:30:00+00:00,305.978,11.76,13.37,47.84626,-54.09684
2018-10-04 21:40:00+00:00,297.7447,11.77,13.29,47.84626,-54.09684
2018-10-04 21:50:00+00:00,292.448,11.78,13.29,47.84626,-54.09684
2018-10-04 22:00:00+00:00,288.303,11.79,13.21,47.84626,-54.09684
2018-10-04 22:10:00+00:00,281.658,11.79,13.13,47.84626,-54.09684
2018-10-04 22:20:00+00:00,276.6347,11.79,13.13,47.84626,-54.09684
2018-10-04 22:30:00+00:00,272.1214,11.79,13.13,47.84626,-54.09684
2018-10-04 22:40:00+00:00,265.053,11.8,13.13,47.84626,-54.09684
2018-10-04 22:50:00+00:00,257.0281,11.8,13.13,47.84626,-54.09684
2018-10-04 23:00:00+00:00,254.243,11.8,13.13,47.84626,-54.09684
2018-10-04 23:10:00+00:00,250.1497,11.8,13.05,47.84626,-54.09684
2018-10-04 23:20:00+00:00,244.5598,11.8,13.05,47.84626,-54.09684
2018-10-04 23:30:00+00:00,241.9581,11.8,13.13,47.84626,-54.09684
2018-10-04 23:40:00+00:00,243.0981,11.8,13.13,47.84626,-54.09684
2018-10-04 23:50:00+00:00,238.7198,11.8,13.13,47.84626,-54.09684
